TimeCDT,TemperatureF,Dew PointF,Humidity,Sea Level PressureIn,VisibilityMPH,Wind Direction,Wind SpeedMPH,Gust SpeedMPH,PrecipitationIn,Events,Conditions,WindDirDegrees,DateUTC
12:15 AM,78.8,68.0,69,29.82,10.0,South,16.1,21.9,N/A,Thunderstorm,Clear,170,2013-05-21 05:15:00
12:35 AM,80.6,68.0,65,29.82,10.0,South,20.7,25.3,N/A,Thunderstorm,Scattered Clouds,180,2013-05-21 05:35:00
12:55 AM,68.0,64.4,88,29.94,0.8,West,18.4,33.4,N/A,Thunderstorm,Unknown,280,2013-05-21 05:55:00
2:15 AM,66.2,66.2,100,29.87,10.0,Calm,Calm,-,N/A,,Scattered Clouds,0,2013-05-21 07:15:00
2:35 AM,66.2,64.4,94,29.85,5.0,NNW,3.5,-,0.02,Rain,Light Rain,330,2013-05-21 07:35:00
2:55 AM,66.2,64.4,94,29.81,5.0,Calm,Calm,-,0.06,Rain,Light Rain,0,2013-05-21 07:55:00
3:15 AM,66.2,66.2,100,29.82,10.0,SSE,4.6,-,N/A,,Clear,160,2013-05-21 08:15:00
3:35 AM,66.2,66.2,100,29.83,10.0,Calm,Calm,-,N/A,,Clear,0,2013-05-21 08:35:00
3:55 AM,66.2,66.2,100,29.83,10.0,ENE,3.5,-,N/A,,Mostly Cloudy,70,2013-05-21 08:55:00
4:15 AM,66.2,66.2,100,29.84,10.0,Calm,Calm,-,N/A,,Scattered Clouds,0,2013-05-21 09:15:00
4:35 AM,66.2,66.2,100,29.85,10.0,SSW,9.2,-,N/A,,Mostly Cloudy,200,2013-05-21 09:35:00
4:55 AM,66.2,66.2,100,29.88,8.0,SSW,10.4,-,N/A,Thunderstorm,Mostly Cloudy,200,2013-05-21 09:55:00
5:15 AM,66.2,64.4,94,29.82,7.0,SE,3.5,-,N/A,Rain,Light Rain,140,2013-05-21 10:15:00
5:35 AM,66.2,66.2,100,29.81,10.0,SE,12.7,-,N/A,,Scattered Clouds,130,2013-05-21 10:35:00
5:55 AM,66.2,64.4,94,29.83,10.0,South,12.7,-,N/A,,Clear,180,2013-05-21 10:55:00
6:15 AM,66.2,64.4,94,29.89,10.0,SW,11.5,-,N/A,,Clear,220,2013-05-21 11:15:00
6:35 AM,66.2,64.4,94,29.91,10.0,West,4.6,-,N/A,,Clear,260,2013-05-21 11:35:00
6:55 AM,66.2,64.4,94,29.90,10.0,SW,4.6,-,N/A,,Partly Cloudy,230,2013-05-21 11:55:00
7:15 AM,66.2,66.2,100,29.96,2.5,SW,10.4,18.4,N/A,Rain-Thunderstorm,Light Thunderstorms and Rain,220,2013-05-21 12:15:00
7:35 AM,66.2,66.2,100,29.94,2.0,South,5.8,-,0.06,Rain-Thunderstorm,Light Rain,170,2013-05-21 12:35:00
7:55 AM,66.2,66.2,100,29.92,2.5,SSE,10.4,-,0.11,Rain-Thunderstorm,Rain,160,2013-05-21 12:55:00
8:15 AM,66.2,66.2,100,29.88,5.0,SE,16.1,21.9,0.02,Rain-Thunderstorm,Light Thunderstorms and Rain,130,2013-05-21 13:15:00
8:35 AM,66.2,66.2,100,29.87,10.0,SSE,18.4,-,0.03,,Clear,150,2013-05-21 13:35:00
8:55 AM,66.2,66.2,100,29.85,10.0,SE,16.1,21.9,0.03,,Clear,140,2013-05-21 13:55:00
9:15 AM,64.4,64.4,100,29.86,10.0,SSE,19.6,26.5,N/A,,Clear,160,2013-05-21 14:15:00
9:35 AM,66.2,66.2,100,29.85,10.0,SSE,13.8,19.6,N/A,,Clear,160,2013-05-21 14:35:00
9:55 AM,66.2,66.2,100,29.88,10.0,South,11.5,17.3,N/A,,Clear,170,2013-05-21 14:55:00
10:15 AM,68.0,66.2,94,29.90,10.0,South,12.7,-,N/A,,Clear,180,2013-05-21 15:15:00
10:35 AM,68.0,64.4,88,29.90,10.0,SSW,11.5,-,N/A,,Clear,200,2013-05-21 15:35:00
10:55 AM,68.0,66.2,94,29.90,10.0,SW,10.4,-,N/A,Thunderstorm,Clear,220,2013-05-21 15:55:00
11:15 AM,68.0,66.2,94,29.92,8.0,WSW,12.7,-,N/A,,Clear,240,2013-05-21 16:15:00
11:35 AM,68.0,66.2,94,29.90,10.0,SSW,10.4,-,N/A,,Unknown,210,2013-05-21 16:35:00
11:55 AM,69.8,66.2,88,29.90,10.0,SW,11.5,-,N/A,,Clear,230,2013-05-21 16:55:00
12:15 PM,71.6,68.0,88,29.88,10.0,SSW,8.1,-,N/A,,Clear,200,2013-05-21 17:15:00
12:35 PM,71.6,66.2,83,29.88,10.0,SSW,10.4,-,N/A,,Clear,210,2013-05-21 17:35:00
12:55 PM,73.4,68.0,83,29.86,10.0,South,13.8,17.3,N/A,,Clear,180,2013-05-21 17:55:00
1:15 PM,75.2,68.0,78,29.85,10.0,South,12.7,17.3,N/A,,Unknown,190,2013-05-21 18:15:00
1:35 PM,75.2,68.0,78,29.87,10.0,SSW,12.7,-,N/A,,Unknown,210,2013-05-21 18:35:00
1:55 PM,75.2,68.0,78,29.85,10.0,SW,6.9,-,N/A,,Unknown,230,2013-05-21 18:55:00
2:15 PM,75.2,68.0,78,29.86,10.0,WSW,11.5,-,N/A,,Unknown,250,2013-05-21 19:15:00
2:35 PM,71.6,64.4,78,29.85,10.0,WNW,17.3,23.0,N/A,Thunderstorm,Scattered Clouds,300,2013-05-21 19:35:00
2:55 PM,68.0,64.4,88,29.83,5.0,WNW,19.6,26.5,0.01,Rain-Thunderstorm,Light Rain,300,2013-05-21 19:55:00
3:15 PM,66.2,66.2,100,29.85,0.8,WNW,9.2,21.9,0.07,Rain-Thunderstorm,Light Thunderstorms and Rain,300,2013-05-21 20:15:00
3:35 PM,66.2,66.2,100,29.80,4.0,NNE,8.1,-,0.27,Rain-Thunderstorm,Light Thunderstorms and Rain,20,2013-05-21 20:35:00
3:55 PM,66.2,66.2,100,29.80,8.0,North,3.5,-,0.30,Thunderstorm,Clear,360,2013-05-21 20:55:00
4:15 PM,66.2,66.2,100,29.83,5.0,South,6.9,-,0.01,Rain-Thunderstorm,Light Rain,180,2013-05-21 21:15:00
4:35 PM,66.2,66.2,100,29.80,4.0,SSE,5.8,-,0.03,Rain-Thunderstorm,Light Rain,160,2013-05-21 21:35:00
4:55 PM,66.2,66.2,100,29.79,10.0,SSW,5.8,-,0.03,,Clear,210,2013-05-21 21:55:00
5:15 PM,66.2,66.2,100,29.80,10.0,SW,8.1,-,N/A,Rain,Light Rain,220,2013-05-21 22:15:00
5:35 PM,66.2,66.2,100,29.80,7.0,South,6.9,-,N/A,Rain-Thunderstorm,Light Rain,190,2013-05-21 22:35:00
5:55 PM,66.2,66.2,100,29.77,7.0,SSE,8.1,-,N/A,Rain,Light Rain,160,2013-05-21 22:55:00
6:15 PM,66.2,66.2,100,29.77,9.0,SSE,10.4,-,N/A,,Clear,150,2013-05-21 23:15:00
6:35 PM,66.2,66.2,100,29.78,9.0,SSE,17.3,-,N/A,,Clear,150,2013-05-21 23:35:00
6:55 PM,66.2,66.2,100,29.79,9.0,SSE,18.4,-,N/A,,Clear,150,2013-05-21 23:55:00
7:15 PM,66.2,66.2,100,29.86,7.0,West,15.0,20.7,N/A,Rain,Light Rain,280,2013-05-22 00:15:00
7:35 PM,66.2,66.2,100,29.85,10.0,WSW,9.2,-,N/A,,Mostly Cloudy,240,2013-05-22 00:35:00
7:55 PM,66.2,64.4,94,29.85,10.0,SSW,9.2,-,N/A,,Overcast,210,2013-05-22 00:55:00
8:15 PM,66.2,66.2,100,29.85,10.0,SSW,11.5,-,N/A,,Scattered Clouds,200,2013-05-22 01:15:00
8:35 PM,66.2,66.2,100,29.81,10.0,SSE,8.1,-,N/A,,Scattered Clouds,160,2013-05-22 01:35:00
8:55 PM,66.2,66.2,100,29.82,10.0,South,11.5,-,N/A,,Scattered Clouds,180,2013-05-22 01:55:00
9:15 PM,66.2,66.2,100,29.83,10.0,South,11.5,-,N/A,,Partly Cloudy,190,2013-05-22 02:15:00
9:35 PM,66.2,66.2,100,29.80,10.0,SSE,11.5,-,N/A,,Clear,160,2013-05-22 02:35:00
9:55 PM,66.2,64.4,94,29.78,10.0,SSE,12.7,-,N/A,,Clear,160,2013-05-22 02:55:00
10:15 PM,66.2,64.4,94,29.80,10.0,South,12.7,-,N/A,,Clear,180,2013-05-22 03:15:00
10:35 PM,66.2,64.4,94,29.78,10.0,SSE,13.8,-,N/A,Rain,Light Rain,160,2013-05-22 03:35:00
10:55 PM,64.4,64.4,100,29.77,9.0,SSE,17.3,24.2,N/A,Rain,Light Rain,160,2013-05-22 03:55:00
11:15 PM,64.4,62.6,94,29.69,8.0,SE,23.0,31.1,N/A,Rain,Light Rain,130,2013-05-22 04:15:00
11:35 PM,64.4,62.6,94,29.75,10.0,SSW,13.8,24.2,N/A,,Scattered Clouds,200,2013-05-22 04:35:00
11:55 PM,64.4,62.6,94,29.76,10.0,South,8.1,-,N/A,,Clear,190,2013-05-22 04:55:00